Regional Weather Roundup
Issued by NWS

Home | Current Version | Previous Version | Graphics & Text | Print | Product List | Glossary On
Versions: 1 2 3 4 5 6 7 8 9 10 11 12 13 14 15 16 17 18 19 20 21 22 23 24 25 26 27 28 29 30 31 32 33 34 35 36 37 38 39 40 41 42 43 44 45 46 47 48 49 50
000
ASUS43 KFSD 121802
RWRSD

WEATHER ROUNDUP FOR SOUTH DAKOTA
NATIONAL WEATHER SERVICE SIOUX FALLS SD
1200 PM CST TUE DEC 12 2017

NOTE: "FAIR" INDICATES FEW OR NO CLOUDS BELOW 12,000 FEET WITH NO
SIGNIFICANT WEATHER AND/OR OBSTRUCTIONS TO VISIBILITY.


SDZ001>005-009-010-012>017-121900-
NORTHWEST AND NORTH CENTRAL SOUTH DAKOTA

CITY           SKY/WX    TMP DP  RH WIND       PRES   REMARKS
BUFFALO          N/A     51  24  34 W17       29.98F
FAITH            N/A     50  22  33 W14       30.04F
MOBRIDGE       SUNNY     39  28  64 SW7       29.99F
$$

SDZ012>016-024>037-041>051-057-063-072>074-121900-
SOUTHWEST AND SOUTH CENTRAL SOUTH DAKOTA

CITY           SKY/WX    TMP DP  RH WIND       PRES   REMARKS
RAPID CTY ARPT SUNNY     49  17  28 SE5       30.11F
PIERRE         SUNNY     37  27  67 W13       30.06F
CUSTER         SUNNY     55   6  14 NW17G26   30.15F
ELLSWORTH AFB  SUNNY     53  16  23 S3        30.09F
PHILIP         SUNNY     45  23  42 W14       30.10F
PINE RIDGE     SUNNY     48  24  39 SW10      30.16F
SPEARFISH      FAIR      57  14  18 W21       30.12F
WINNER         FAIR      46  26  45 SW12      30.12F
$$

SDZ004>011-016>023-039-040-121900-
NORTHEAST SOUTH DAKOTA

CITY           SKY/WX    TMP DP  RH WIND       PRES   REMARKS
ABERDEEN       PTSUNNY   38  30  73 SW17      30.02F
WATERTOWN      CLOUDY    34  28  79 SW15      30.02F WCI  24
BROOKINGS      CLOUDY    34  27  75 W13       30.07F WCI  25
SISSETON         N/A     38  29  70 W14       29.97F
$$

SDZ017-020-022-023-036>040-048>070-121900-
SOUTHEAST SOUTH DAKOTA

CITY           SKY/WX    TMP DP  RH WIND       PRES   REMARKS
SIOUX FALLS    CLOUDY    31  25  78 SW8       30.12F WCI  23
HURON          SUNNY     41  29  62 MISG      30.08F
CHAMBERLAIN    SUNNY     41  31  69 SW3       30.10F
MITCHELL       SUNNY     40  29  64 SW9       30.12F
YANKTON        SUNNY     36  27  69 S6        30.16F
$$

ABBREVIATIONS USED IN REMARKS
   TC - TEMPERATURE IN CELSIUS
  WCI - WIND CHILL INDEX
   HX - HEAT INDEX
  VSB - VISIBILITY





USA.gov is the U.S. government's official web portal to all federal, state and local government web resources and services.